Year,Month,Day,Hour,Minute,Value (Times are PST for temperature in C)
2018,07,08,00,00,13.40
2018,07,08,00,01,13.40
2018,07,08,00,02,13.30
2018,07,08,00,03,13.30
2018,07,08,00,04,13.30
2018,07,08,00,05,13.30
2018,07,08,00,06,13.30
2018,07,08,00,07,13.20
2018,07,08,00,08,13.20
2018,07,08,00,09,13.20
2018,07,08,00,10,13.10
2018,07,08,00,11,13.10
2018,07,08,00,12,13.10
2018,07,08,00,13,13.00
2018,07,08,00,14,13.00
2018,07,08,00,15,13.00
2018,07,08,00,16,13.00
2018,07,08,00,17,13.00
2018,07,08,00,18,13.00
2018,07,08,00,19,13.00
2018,07,08,00,20,12.90
2018,07,08,00,21,12.90
2018,07,08,00,22,12.90
2018,07,08,00,23,12.90
2018,07,08,00,24,12.90
2018,07,08,00,25,12.90
2018,07,08,00,26,12.90
2018,07,08,00,27,12.80
2018,07,08,00,28,12.80
2018,07,08,00,29,12.80
2018,07,08,00,30,12.80
2018,07,08,00,31,12.70
2018,07,08,00,32,12.70
2018,07,08,00,33,12.70
2018,07,08,00,34,12.70
2018,07,08,00,35,12.80
2018,07,08,00,36,12.80
2018,07,08,00,37,12.80
2018,07,08,00,38,12.80
2018,07,08,00,39,12.80
2018,07,08,00,40,12.80
2018,07,08,00,41,12.80
2018,07,08,00,42,12.80
2018,07,08,00,43,12.80
2018,07,08,00,44,12.80
2018,07,08,00,45,12.80
2018,07,08,00,46,12.80
2018,07,08,00,47,12.80
2018,07,08,00,48,12.80
2018,07,08,00,49,12.80
2018,07,08,00,50,12.80
2018,07,08,00,51,12.80
2018,07,08,00,52,12.80
2018,07,08,00,53,12.80
2018,07,08,00,54,12.80
2018,07,08,00,55,12.80
2018,07,08,00,56,12.80
2018,07,08,00,57,12.80
2018,07,08,00,58,12.80
2018,07,08,00,59,12.80
2018,07,08,01,00,12.80
2018,07,08,01,01,12.70
2018,07,08,01,02,12.70
2018,07,08,01,03,12.70
2018,07,08,01,04,12.70
2018,07,08,01,05,12.70
2018,07,08,01,06,12.70
2018,07,08,01,07,12.70
2018,07,08,01,08,12.70
2018,07,08,01,09,12.70
2018,07,08,01,10,12.70
2018,07,08,01,11,12.70
2018,07,08,01,12,12.70
2018,07,08,01,13,12.70
2018,07,08,01,14,12.80
2018,07,08,01,15,12.80
2018,07,08,01,16,12.80
2018,07,08,01,17,12.80
2018,07,08,01,18,12.70
2018,07,08,01,19,12.70
2018,07,08,01,20,12.70
2018,07,08,01,21,12.70
2018,07,08,01,22,12.70
2018,07,08,01,23,12.70
2018,07,08,01,24,12.70
2018,07,08,01,25,12.60
2018,07,08,01,26,12.60
2018,07,08,01,27,12.60
2018,07,08,01,28,12.60
2018,07,08,01,29,12.50
2018,07,08,01,30,12.50
2018,07,08,01,31,12.40
2018,07,08,01,32,12.40
2018,07,08,01,33,12.40
2018,07,08,01,34,12.40
2018,07,08,01,35,12.30
2018,07,08,01,36,12.30
2018,07,08,01,37,12.30
2018,07,08,01,38,12.30
2018,07,08,01,39,12.30
2018,07,08,01,40,12.30
2018,07,08,01,41,12.30
2018,07,08,01,42,12.30
2018,07,08,01,43,12.30
2018,07,08,01,44,12.30
2018,07,08,01,45,12.30
2018,07,08,01,46,12.30
2018,07,08,01,47,12.30
2018,07,08,01,48,12.20
2018,07,08,01,49,12.20
2018,07,08,01,50,12.20
2018,07,08,01,51,12.10
2018,07,08,01,52,12.10
2018,07,08,01,53,12.10
2018,07,08,01,54,12.10
2018,07,08,01,55,12.10
2018,07,08,01,56,12.00
2018,07,08,01,57,12.00
2018,07,08,01,58,12.00
2018,07,08,01,59,12.00
2018,07,08,02,00,12.00
2018,07,08,02,01,12.00
2018,07,08,02,02,12.00
2018,07,08,02,03,11.90
2018,07,08,02,04,11.90
2018,07,08,02,05,11.90
2018,07,08,02,06,11.80
2018,07,08,02,07,11.80
2018,07,08,02,08,11.80
2018,07,08,02,09,11.70
2018,07,08,02,10,11.70
2018,07,08,02,11,11.70
2018,07,08,02,12,11.60
2018,07,08,02,13,11.60
2018,07,08,02,14,11.60
2018,07,08,02,15,11.60
2018,07,08,02,16,11.60
2018,07,08,02,17,11.60
2018,07,08,02,18,11.60
2018,07,08,02,19,11.60
2018,07,08,02,20,11.60
2018,07,08,02,21,11.60
2018,07,08,02,22,11.60
2018,07,08,02,23,11.60
2018,07,08,02,24,11.60
2018,07,08,02,25,11.60
2018,07,08,02,26,11.60
2018,07,08,02,27,11.60
2018,07,08,02,28,11.60
2018,07,08,02,29,11.50
2018,07,08,02,30,11.50
2018,07,08,02,31,11.50
2018,07,08,02,32,11.50
2018,07,08,02,33,11.40
2018,07,08,02,34,11.40
2018,07,08,02,35,11.40
2018,07,08,02,36,11.40
2018,07,08,02,37,11.40
2018,07,08,02,38,11.30
2018,07,08,02,39,11.30
2018,07,08,02,40,11.30
2018,07,08,02,41,11.30
2018,07,08,02,42,11.30
2018,07,08,02,43,11.30
2018,07,08,02,44,11.20
2018,07,08,02,45,11.20
2018,07,08,02,46,11.20
2018,07,08,02,47,11.20
2018,07,08,02,48,11.10
2018,07,08,02,49,11.10
2018,07,08,02,50,11.10
2018,07,08,02,51,11.10
2018,07,08,02,52,11.00
2018,07,08,02,53,11.00
2018,07,08,02,54,10.90
2018,07,08,02,55,10.90
2018,07,08,02,56,10.90
2018,07,08,02,57,10.90
2018,07,08,02,58,10.90
2018,07,08,02,59,10.90
2018,07,08,03,00,10.80
2018,07,08,03,01,10.80
2018,07,08,03,02,10.80
2018,07,08,03,03,10.80
2018,07,08,03,04,10.80
2018,07,08,03,05,10.80
2018,07,08,03,06,10.80
2018,07,08,03,07,10.90
2018,07,08,03,08,10.90
2018,07,08,03,09,10.90
2018,07,08,03,10,10.90
2018,07,08,03,11,10.90
2018,07,08,03,12,10.90
2018,07,08,03,13,10.90
2018,07,08,03,14,10.90
2018,07,08,03,15,11.00
2018,07,08,03,16,11.00
2018,07,08,03,17,11.00
2018,07,08,03,18,11.00
2018,07,08,03,19,11.00
2018,07,08,03,20,11.00
2018,07,08,03,21,11.00
2018,07,08,03,22,11.00
2018,07,08,03,23,11.00
2018,07,08,03,24,10.90
2018,07,08,03,25,10.90
2018,07,08,03,26,10.90
2018,07,08,03,27,10.90
2018,07,08,03,28,10.90
2018,07,08,03,29,10.90
2018,07,08,03,30,10.90
2018,07,08,03,31,10.80
2018,07,08,03,32,10.80
2018,07,08,03,33,10.70
2018,07,08,03,34,10.70
2018,07,08,03,35,10.60
2018,07,08,03,36,10.60
2018,07,08,03,37,10.60
2018,07,08,03,38,10.60
2018,07,08,03,39,10.50
2018,07,08,03,40,10.50
2018,07,08,03,41,10.50
2018,07,08,03,42,10.40
2018,07,08,03,43,10.40
2018,07,08,03,44,10.40
2018,07,08,03,45,10.40
2018,07,08,03,46,10.40
2018,07,08,03,47,10.40
2018,07,08,03,48,10.40
2018,07,08,03,49,10.40
2018,07,08,03,50,10.40
2018,07,08,03,51,10.40
2018,07,08,03,52,10.40
2018,07,08,03,53,10.40
2018,07,08,03,54,10.50
2018,07,08,03,55,10.50
2018,07,08,03,56,10.50
2018,07,08,03,57,10.50
2018,07,08,03,58,10.50
2018,07,08,03,59,10.50
2018,07,08,04,00,10.50
2018,07,08,04,01,10.50
2018,07,08,04,02,10.50
2018,07,08,04,03,10.40
2018,07,08,04,04,10.40
2018,07,08,04,05,10.40
2018,07,08,04,06,10.40
2018,07,08,04,07,10.40
2018,07,08,04,08,10.40
2018,07,08,04,09,10.40
2018,07,08,04,10,10.40
2018,07,08,04,11,10.40
2018,07,08,04,12,10.40
2018,07,08,04,13,10.40
2018,07,08,04,14,10.40
2018,07,08,04,15,10.40
2018,07,08,04,16,10.40
2018,07,08,04,17,10.40
2018,07,08,04,18,10.40
2018,07,08,04,19,10.40
2018,07,08,04,20,10.40
2018,07,08,04,21,10.40
2018,07,08,04,22,10.40
2018,07,08,04,23,10.40
2018,07,08,04,24,10.30
2018,07,08,04,25,10.30
2018,07,08,04,26,10.30
2018,07,08,04,27,10.30
2018,07,08,04,28,10.30
2018,07,08,04,29,10.30
2018,07,08,04,30,10.30
2018,07,08,04,31,10.30
2018,07,08,04,32,10.30
2018,07,08,04,33,10.20
2018,07,08,04,34,10.20
2018,07,08,04,35,10.20
2018,07,08,04,36,10.20
2018,07,08,04,37,10.20
2018,07,08,04,38,10.20
2018,07,08,04,39,10.20
2018,07,08,04,40,10.20
2018,07,08,04,41,10.20
2018,07,08,04,42,10.20
2018,07,08,04,43,10.20
2018,07,08,04,44,10.20
2018,07,08,04,45,10.20
2018,07,08,04,46,10.20
2018,07,08,04,47,10.20
2018,07,08,04,48,10.20
2018,07,08,04,49,10.20
2018,07,08,04,50,10.20
2018,07,08,04,51,10.20
2018,07,08,04,52,10.20
2018,07,08,04,53,10.20
2018,07,08,04,54,10.10
2018,07,08,04,55,10.10
2018,07,08,04,56,10.00
2018,07,08,04,57,10.00
2018,07,08,04,58,9.90
2018,07,08,04,59,9.90
2018,07,08,05,00,9.90
2018,07,08,05,01,9.80
2018,07,08,05,02,9.80
2018,07,08,05,03,9.80
2018,07,08,05,04,9.70
2018,07,08,05,05,9.70
2018,07,08,05,06,9.70
2018,07,08,05,07,9.70
2018,07,08,05,08,9.70
2018,07,08,05,09,9.70
2018,07,08,05,10,9.60
2018,07,08,05,11,9.60
2018,07,08,05,12,9.60
2018,07,08,05,13,9.60
2018,07,08,05,14,9.60
2018,07,08,05,15,9.60
2018,07,08,05,16,9.60
2018,07,08,05,17,9.60
2018,07,08,05,18,9.60
2018,07,08,05,19,9.60
2018,07,08,05,20,9.60
2018,07,08,05,21,9.60
2018,07,08,05,22,9.60
2018,07,08,05,23,9.60
2018,07,08,05,24,9.60
2018,07,08,05,25,9.50
2018,07,08,05,26,9.50
2018,07,08,05,27,9.50
2018,07,08,05,28,9.50
2018,07,08,05,29,9.50
2018,07,08,05,30,9.50
2018,07,08,05,31,9.50
2018,07,08,05,32,9.50
2018,07,08,05,33,9.50
2018,07,08,05,34,9.50
2018,07,08,05,35,9.50
2018,07,08,05,36,9.50
2018,07,08,05,37,9.50
2018,07,08,05,38,9.50
2018,07,08,05,39,9.50
2018,07,08,05,40,9.60
2018,07,08,05,41,9.60
2018,07,08,05,42,9.60
2018,07,08,05,43,9.60
2018,07,08,05,44,9.60
2018,07,08,05,45,9.60
2018,07,08,05,46,9.60
2018,07,08,05,47,9.60
2018,07,08,05,48,9.60
2018,07,08,05,49,9.60
2018,07,08,05,50,9.50
2018,07,08,05,51,9.50
2018,07,08,05,52,9.50
2018,07,08,05,53,9.40
2018,07,08,05,54,9.40
2018,07,08,05,55,9.30
2018,07,08,05,56,9.30
2018,07,08,05,57,9.20
2018,07,08,05,58,9.20
2018,07,08,05,59,9.20
2018,07,08,06,00,9.20
2018,07,08,06,01,9.20
2018,07,08,06,02,9.20
2018,07,08,06,03,9.20
2018,07,08,06,04,9.20
2018,07,08,06,05,9.20
2018,07,08,06,06,9.20
2018,07,08,06,07,9.20
2018,07,08,06,08,9.20
2018,07,08,06,09,9.20
2018,07,08,06,10,9.20
2018,07,08,06,11,9.10
2018,07,08,06,12,9.20
2018,07,08,06,13,9.20
2018,07,08,06,14,9.20
2018,07,08,06,15,9.20
2018,07,08,06,16,9.20
2018,07,08,06,17,9.20
2018,07,08,06,18,9.20
2018,07,08,06,19,9.30
2018,07,08,06,20,9.30
2018,07,08,06,21,9.30
2018,07,08,06,22,9.30
2018,07,08,06,23,9.30
2018,07,08,06,24,9.40
2018,07,08,06,25,9.40
2018,07,08,06,26,9.40
2018,07,08,06,27,9.40
2018,07,08,06,28,9.50
2018,07,08,06,29,9.50
2018,07,08,06,30,9.60
2018,07,08,06,31,9.60
2018,07,08,06,32,9.70
2018,07,08,06,33,9.70
2018,07,08,06,34,9.70
2018,07,08,06,35,9.80
2018,07,08,06,36,9.80
2018,07,08,06,37,9.80
2018,07,08,06,38,9.90
2018,07,08,06,39,10.00
2018,07,08,06,40,10.00
2018,07,08,06,41,10.00
2018,07,08,06,42,10.10
2018,07,08,06,43,10.20
2018,07,08,06,44,10.20
2018,07,08,06,45,10.20
2018,07,08,06,46,10.20
2018,07,08,06,47,10.20
2018,07,08,06,48,10.20
2018,07,08,06,49,10.20
2018,07,08,06,50,10.20
2018,07,08,06,51,10.20
2018,07,08,06,52,10.20
2018,07,08,06,53,10.30
2018,07,08,06,54,10.30
2018,07,08,06,55,10.30
2018,07,08,06,56,10.40
2018,07,08,06,57,10.50
2018,07,08,06,58,10.60
2018,07,08,06,59,10.60
2018,07,08,07,00,10.70
2018,07,08,07,01,10.70
2018,07,08,07,02,10.70
2018,07,08,07,03,10.80
2018,07,08,07,04,10.80
2018,07,08,07,05,10.80
2018,07,08,07,06,10.80
2018,07,08,07,07,10.90
2018,07,08,07,08,10.90
2018,07,08,07,09,11.00
2018,07,08,07,10,11.00
2018,07,08,07,11,11.10
2018,07,08,07,12,11.10
2018,07,08,07,13,11.20
2018,07,08,07,14,11.30
2018,07,08,07,15,11.30
2018,07,08,07,16,11.40
2018,07,08,07,17,11.50
2018,07,08,07,18,11.60
2018,07,08,07,19,11.70
2018,07,08,07,20,11.70
2018,07,08,07,21,11.80
2018,07,08,07,22,11.80
2018,07,08,07,23,11.90
2018,07,08,07,24,12.00
2018,07,08,07,25,12.00
2018,07,08,07,26,12.10
2018,07,08,07,27,12.10
2018,07,08,07,28,12.20
2018,07,08,07,29,12.20
2018,07,08,07,30,12.30
2018,07,08,07,31,12.30
2018,07,08,07,32,12.40
2018,07,08,07,33,12.50
2018,07,08,07,34,12.50
2018,07,08,07,35,12.60
2018,07,08,07,36,12.70
2018,07,08,07,37,12.70
2018,07,08,07,38,12.80
2018,07,08,07,39,12.90
2018,07,08,07,40,13.00
2018,07,08,07,41,13.00
2018,07,08,07,42,13.10
2018,07,08,07,43,13.20
2018,07,08,07,44,13.30
2018,07,08,07,45,13.40
2018,07,08,07,46,13.50
2018,07,08,07,47,13.50
2018,07,08,07,48,13.60
2018,07,08,07,49,13.70
2018,07,08,07,50,13.80
2018,07,08,07,51,13.80
2018,07,08,07,52,13.90
2018,07,08,07,53,14.00
2018,07,08,07,54,14.10
2018,07,08,07,55,14.10
2018,07,08,07,56,14.20
2018,07,08,07,57,14.20
2018,07,08,07,58,14.20
2018,07,08,07,59,14.20
2018,07,08,08,00,14.20
2018,07,08,08,01,14.20
2018,07,08,08,02,14.20
2018,07,08,08,03,14.30
2018,07,08,08,04,14.30
2018,07,08,08,05,14.40
2018,07,08,08,06,14.50
2018,07,08,08,07,14.50
2018,07,08,08,08,14.50
2018,07,08,08,09,14.60
2018,07,08,08,10,14.70
2018,07,08,08,11,14.80
2018,07,08,08,12,14.90
2018,07,08,08,13,15.00
2018,07,08,08,14,15.10
2018,07,08,08,15,15.20
2018,07,08,08,16,15.20
2018,07,08,08,17,15.30
2018,07,08,08,18,15.30
2018,07,08,08,19,15.40
2018,07,08,08,20,15.40
2018,07,08,08,21,15.30
2018,07,08,08,22,15.30
2018,07,08,08,23,15.30
2018,07,08,08,24,15.30
2018,07,08,08,25,15.30
2018,07,08,08,26,15.30
2018,07,08,08,27,15.30
2018,07,08,08,28,15.30
2018,07,08,08,29,15.40
2018,07,08,08,30,15.40
2018,07,08,08,31,15.40
2018,07,08,08,32,15.50
2018,07,08,08,33,15.60
2018,07,08,08,34,15.60
2018,07,08,08,35,15.60
2018,07,08,08,36,15.60
2018,07,08,08,37,15.70
2018,07,08,08,38,15.70
2018,07,08,08,39,15.80
2018,07,08,08,40,15.80
2018,07,08,08,41,15.90
2018,07,08,08,42,15.90
2018,07,08,08,43,16.00
2018,07,08,08,44,16.00
2018,07,08,08,45,16.10
2018,07,08,08,46,16.10
2018,07,08,08,47,16.20
2018,07,08,08,48,16.20
2018,07,08,08,49,16.30
2018,07,08,08,50,16.30
2018,07,08,08,51,16.30
2018,07,08,08,52,16.30
2018,07,08,08,53,16.40
2018,07,08,08,54,16.40
2018,07,08,08,55,16.50
2018,07,08,08,56,16.50
2018,07,08,08,57,16.50
2018,07,08,08,58,16.60
2018,07,08,08,59,16.70
2018,07,08,09,00,16.70
2018,07,08,09,01,16.80
2018,07,08,09,02,16.80
2018,07,08,09,03,16.80
2018,07,08,09,04,16.80
2018,07,08,09,05,16.80
2018,07,08,09,06,16.80
2018,07,08,09,07,16.90
2018,07,08,09,08,16.90
2018,07,08,09,09,16.90
2018,07,08,09,10,16.90
2018,07,08,09,11,17.00
2018,07,08,09,12,17.00
2018,07,08,09,13,17.00
2018,07,08,09,14,17.10
2018,07,08,09,15,17.10
2018,07,08,09,16,17.20
2018,07,08,09,17,17.20
2018,07,08,09,18,17.20
2018,07,08,09,19,17.20
2018,07,08,09,20,17.20
2018,07,08,09,21,17.20
2018,07,08,09,22,17.20
2018,07,08,09,23,17.20
2018,07,08,09,24,17.20
2018,07,08,09,25,17.20
2018,07,08,09,26,17.30
2018,07,08,09,27,17.30
2018,07,08,09,28,17.30
2018,07,08,09,29,17.30
2018,07,08,09,30,17.40
2018,07,08,09,31,17.40
2018,07,08,09,32,17.40
2018,07,08,09,33,17.50
2018,07,08,09,34,17.50
2018,07,08,09,35,17.60
2018,07,08,09,36,17.60
2018,07,08,09,37,17.70
2018,07,08,09,38,17.80
2018,07,08,09,39,17.90
2018,07,08,09,40,18.00
2018,07,08,09,41,18.00
2018,07,08,09,42,18.00
2018,07,08,09,43,18.10
2018,07,08,09,44,18.10
2018,07,08,09,45,18.10
2018,07,08,09,46,18.20
2018,07,08,09,47,18.20
2018,07,08,09,48,18.20
2018,07,08,09,49,18.30
2018,07,08,09,50,18.30
2018,07,08,09,51,18.30
2018,07,08,09,52,18.30
2018,07,08,09,53,18.40
2018,07,08,09,54,18.40
2018,07,08,09,55,18.40
2018,07,08,09,56,18.50
2018,07,08,09,57,18.60
2018,07,08,09,58,18.60
2018,07,08,09,59,18.70
2018,07,08,10,00,18.80
2018,07,08,10,01,18.80
2018,07,08,10,02,18.90
2018,07,08,10,03,19.00
2018,07,08,10,04,19.10
2018,07,08,10,05,19.20
2018,07,08,10,06,19.30
2018,07,08,10,07,19.30
2018,07,08,10,08,19.30
2018,07,08,10,09,19.40
2018,07,08,10,10,19.40
2018,07,08,10,11,19.40
2018,07,08,10,12,19.40
2018,07,08,10,13,19.50
2018,07,08,10,14,19.50
2018,07,08,10,15,19.60
2018,07,08,10,16,19.60
2018,07,08,10,17,19.60
2018,07,08,10,18,19.60
2018,07,08,10,19,19.50
2018,07,08,10,20,19.40
2018,07,08,10,21,19.40
2018,07,08,10,22,19.30
2018,07,08,10,23,19.30
2018,07,08,10,24,19.30
2018,07,08,10,25,19.30
2018,07,08,10,26,19.30
2018,07,08,10,27,19.30
2018,07,08,10,28,19.20
2018,07,08,10,29,19.20
2018,07,08,10,30,19.20
2018,07,08,10,31,19.20
2018,07,08,10,32,19.30
2018,07,08,10,33,19.30
2018,07,08,10,34,19.30
2018,07,08,10,35,19.40
2018,07,08,10,36,19.50
2018,07,08,10,37,19.50
2018,07,08,10,38,19.60
2018,07,08,10,39,19.60
2018,07,08,10,40,19.60
2018,07,08,10,41,19.60
2018,07,08,10,42,19.60
2018,07,08,10,43,19.60
2018,07,08,10,44,19.70
2018,07,08,10,45,19.80
2018,07,08,10,46,19.80
2018,07,08,10,47,19.80
2018,07,08,10,48,19.80
2018,07,08,10,49,19.80
2018,07,08,10,50,19.90
2018,07,08,10,51,20.00
2018,07,08,10,52,20.00
2018,07,08,10,53,20.10
2018,07,08,10,54,20.10
2018,07,08,10,55,20.00
2018,07,08,10,56,20.00
2018,07,08,10,57,20.00
2018,07,08,10,58,20.00
2018,07,08,10,59,20.00
2018,07,08,11,00,20.00
2018,07,08,11,01,20.00
2018,07,08,11,02,20.00
2018,07,08,11,03,20.00
2018,07,08,11,04,20.00
2018,07,08,11,05,20.00
2018,07,08,11,06,20.00
2018,07,08,11,07,19.90
2018,07,08,11,08,19.90
2018,07,08,11,09,19.80
2018,07,08,11,10,19.80
2018,07,08,11,11,19.70
2018,07,08,11,12,19.60
2018,07,08,11,13,19.50
2018,07,08,11,14,19.50
2018,07,08,11,15,19.50
2018,07,08,11,16,19.50
2018,07,08,11,17,19.50
2018,07,08,11,18,19.50
2018,07,08,11,19,19.50
2018,07,08,11,20,19.60
2018,07,08,11,21,19.50
2018,07,08,11,22,19.50
2018,07,08,11,23,19.60
2018,07,08,11,24,19.60
2018,07,08,11,25,19.60
2018,07,08,11,26,19.60
2018,07,08,11,27,19.60
2018,07,08,11,28,19.60
2018,07,08,11,29,19.60
2018,07,08,11,30,19.60
2018,07,08,11,31,19.60
2018,07,08,11,32,19.70
2018,07,08,11,33,19.70
2018,07,08,11,34,19.80
2018,07,08,11,35,19.80
2018,07,08,11,36,19.90
2018,07,08,11,37,20.00
2018,07,08,11,38,20.10
2018,07,08,11,39,20.10
2018,07,08,11,40,20.20
2018,07,08,11,41,20.30
2018,07,08,11,42,20.30
2018,07,08,11,43,20.30
2018,07,08,11,44,20.30
2018,07,08,11,45,20.40
2018,07,08,11,46,20.40
2018,07,08,11,47,20.40
2018,07,08,11,48,20.40
2018,07,08,11,49,20.30
2018,07,08,11,50,20.30
2018,07,08,11,51,20.40
2018,07,08,11,52,20.30
2018,07,08,11,53,20.30
2018,07,08,11,54,20.30
2018,07,08,11,55,20.30
2018,07,08,11,56,20.20
2018,07,08,11,57,20.20
2018,07,08,11,58,20.20
2018,07,08,11,59,20.10
2018,07,08,12,00,20.10
2018,07,08,12,01,20.10
2018,07,08,12,02,20.10
2018,07,08,12,03,20.10
2018,07,08,12,04,20.10
2018,07,08,12,05,20.20
2018,07,08,12,06,20.20
2018,07,08,12,07,20.20
2018,07,08,12,08,20.20
2018,07,08,12,09,20.20
2018,07,08,12,10,20.10
2018,07,08,12,11,20.10
2018,07,08,12,12,20.00
2018,07,08,12,13,19.90
2018,07,08,12,14,19.80
2018,07,08,12,15,19.70
2018,07,08,12,16,19.70
2018,07,08,12,17,19.80
2018,07,08,12,18,19.80
2018,07,08,12,19,19.80
2018,07,08,12,20,19.90
2018,07,08,12,21,19.90
2018,07,08,12,22,19.90
2018,07,08,12,23,19.90
2018,07,08,12,24,19.90
2018,07,08,12,25,20.00
2018,07,08,12,26,20.00
2018,07,08,12,27,20.00
2018,07,08,12,28,20.00
2018,07,08,12,29,20.10
2018,07,08,12,30,20.10
2018,07,08,12,31,20.10
2018,07,08,12,32,20.10
2018,07,08,12,33,20.10
2018,07,08,12,34,20.10
2018,07,08,12,35,20.10
2018,07,08,12,36,20.00
2018,07,08,12,37,20.00
2018,07,08,12,38,20.00
2018,07,08,12,39,20.00
2018,07,08,12,40,20.00
2018,07,08,12,41,20.00
2018,07,08,12,42,20.00
2018,07,08,12,43,20.00
2018,07,08,12,44,20.00
2018,07,08,12,45,19.90
2018,07,08,12,46,19.90
2018,07,08,12,47,20.00
2018,07,08,12,48,20.00
2018,07,08,12,49,19.90
2018,07,08,12,50,19.80
2018,07,08,12,51,19.70
2018,07,08,12,52,19.70
2018,07,08,12,53,19.70
2018,07,08,12,54,19.60
2018,07,08,12,55,19.60
2018,07,08,12,56,19.60
2018,07,08,12,57,19.60
2018,07,08,12,58,19.60
2018,07,08,12,59,19.60
2018,07,08,13,00,19.60
2018,07,08,13,01,19.60
2018,07,08,13,02,19.50
2018,07,08,13,03,19.50
2018,07,08,13,04,19.50
2018,07,08,13,05,19.50
2018,07,08,13,06,19.40
2018,07,08,13,07,19.40
2018,07,08,13,08,19.40
2018,07,08,13,09,19.40
2018,07,08,13,10,19.30
2018,07,08,13,11,19.30
2018,07,08,13,12,19.30
2018,07,08,13,13,19.40
2018,07,08,13,14,19.50
2018,07,08,13,15,19.50
2018,07,08,13,16,19.60
2018,07,08,13,17,19.70
2018,07,08,13,18,19.80
2018,07,08,13,19,19.80
2018,07,08,13,20,19.80
2018,07,08,13,21,19.80
2018,07,08,13,22,19.90
2018,07,08,13,23,19.90
2018,07,08,13,24,20.00
2018,07,08,13,25,20.10
2018,07,08,13,26,20.10
2018,07,08,13,27,20.20
2018,07,08,13,28,20.10
2018,07,08,13,29,20.10
2018,07,08,13,30,20.10
2018,07,08,13,31,20.00
2018,07,08,13,32,20.00
2018,07,08,13,33,19.90
2018,07,08,13,34,20.00
2018,07,08,13,35,20.00
2018,07,08,13,36,20.10
2018,07,08,13,37,20.20
2018,07,08,13,38,20.20
2018,07,08,13,39,20.30
2018,07,08,13,40,20.30
2018,07,08,13,41,20.30
2018,07,08,13,42,20.40
2018,07,08,13,43,20.40
2018,07,08,13,44,20.40
2018,07,08,13,45,20.30
2018,07,08,13,46,20.30
2018,07,08,13,47,20.30
2018,07,08,13,48,20.40
2018,07,08,13,49,20.40
2018,07,08,13,50,20.40
2018,07,08,13,51,20.40
2018,07,08,13,52,20.40
2018,07,08,13,53,20.40
2018,07,08,13,54,20.30
2018,07,08,13,55,20.30
2018,07,08,13,56,20.30
2018,07,08,13,57,20.30
2018,07,08,13,58,20.30
2018,07,08,13,59,20.30
2018,07,08,14,00,20.30
2018,07,08,14,01,20.30
2018,07,08,14,02,20.30
2018,07,08,14,03,20.30
2018,07,08,14,04,20.40
2018,07,08,14,05,20.40
2018,07,08,14,06,20.50
2018,07,08,14,07,20.60
2018,07,08,14,08,20.70
2018,07,08,14,09,20.70
2018,07,08,14,10,20.80
2018,07,08,14,11,20.80
2018,07,08,14,12,20.80
2018,07,08,14,13,20.90
2018,07,08,14,14,20.90
2018,07,08,14,15,20.90
2018,07,08,14,16,21.00
2018,07,08,14,17,21.10
2018,07,08,14,18,21.10
2018,07,08,14,19,21.20
2018,07,08,14,20,21.20
2018,07,08,14,21,21.30
2018,07,08,14,22,21.30
2018,07,08,14,23,21.30
2018,07,08,14,24,21.30
2018,07,08,14,25,21.30
2018,07,08,14,26,21.30
2018,07,08,14,27,21.30
2018,07,08,14,28,21.30
2018,07,08,14,29,21.40
2018,07,08,14,30,21.40
2018,07,08,14,31,21.50
2018,07,08,14,32,21.50
2018,07,08,14,33,21.50
2018,07,08,14,34,21.50
2018,07,08,14,35,21.60
2018,07,08,14,36,21.70
2018,07,08,14,37,21.80
2018,07,08,14,38,21.90
2018,07,08,14,39,21.90
2018,07,08,14,40,22.00
2018,07,08,14,41,22.10
2018,07,08,14,42,22.20
2018,07,08,14,43,22.30
2018,07,08,14,44,22.30
2018,07,08,14,45,22.30
2018,07,08,14,46,22.20
2018,07,08,14,47,22.20
2018,07,08,14,48,22.10
2018,07,08,14,49,22.00
2018,07,08,14,50,21.90
2018,07,08,14,51,21.90
2018,07,08,14,52,21.90
2018,07,08,14,53,21.80
2018,07,08,14,54,21.80
2018,07,08,14,55,21.80
2018,07,08,14,56,21.90
2018,07,08,14,57,21.90
2018,07,08,14,58,21.90
2018,07,08,14,59,21.80
2018,07,08,15,00,21.80
2018,07,08,15,01,21.80
2018,07,08,15,02,21.90
2018,07,08,15,03,21.90
2018,07,08,15,04,21.90
2018,07,08,15,05,21.90
2018,07,08,15,06,21.80
2018,07,08,15,07,21.80
2018,07,08,15,08,21.80
2018,07,08,15,09,21.80
2018,07,08,15,10,21.80
2018,07,08,15,11,21.80
2018,07,08,15,12,21.80
2018,07,08,15,13,21.80
2018,07,08,15,14,21.80
2018,07,08,15,15,21.80
2018,07,08,15,16,21.90
2018,07,08,15,17,21.90
2018,07,08,15,18,21.90
2018,07,08,15,19,22.00
2018,07,08,15,20,22.10
2018,07,08,15,21,22.10
2018,07,08,15,22,22.20
2018,07,08,15,23,22.10
2018,07,08,15,24,22.10
2018,07,08,15,25,22.10
2018,07,08,15,26,22.10
2018,07,08,15,27,22.10
2018,07,08,15,28,22.10
2018,07,08,15,29,22.10
2018,07,08,15,30,22.10
2018,07,08,15,31,22.10
2018,07,08,15,32,22.00
2018,07,08,15,33,22.00
2018,07,08,15,34,22.00
2018,07,08,15,35,22.00
2018,07,08,15,36,22.00
2018,07,08,15,37,21.90
2018,07,08,15,38,21.90
2018,07,08,15,39,21.90
2018,07,08,15,40,21.90
2018,07,08,15,41,21.90
2018,07,08,15,42,21.80
2018,07,08,15,43,21.70
2018,07,08,15,44,21.70
2018,07,08,15,45,21.70
2018,07,08,15,46,21.70
2018,07,08,15,47,21.60
2018,07,08,15,48,21.60
2018,07,08,15,49,21.50
2018,07,08,15,50,21.50
2018,07,08,15,51,21.40
2018,07,08,15,52,21.50
2018,07,08,15,53,21.50
2018,07,08,15,54,21.50
2018,07,08,15,55,21.50
2018,07,08,15,56,21.60
2018,07,08,15,57,21.60
2018,07,08,15,58,21.70
2018,07,08,15,59,21.70
2018,07,08,16,00,21.70
2018,07,08,16,01,21.70
2018,07,08,16,02,21.70
2018,07,08,16,03,21.70
2018,07,08,16,04,21.70
2018,07,08,16,05,21.70
2018,07,08,16,06,21.70
2018,07,08,16,07,21.60
2018,07,08,16,08,21.60
2018,07,08,16,09,21.60
2018,07,08,16,10,21.50
2018,07,08,16,11,21.50
2018,07,08,16,12,21.50
2018,07,08,16,13,21.50
2018,07,08,16,14,21.50
2018,07,08,16,15,21.60
2018,07,08,16,16,21.60
2018,07,08,16,17,21.60
2018,07,08,16,18,21.70
2018,07,08,16,19,21.70
2018,07,08,16,20,21.70
2018,07,08,16,21,21.80
2018,07,08,16,22,21.80
2018,07,08,16,23,21.80
2018,07,08,16,24,21.80
2018,07,08,16,25,21.80
2018,07,08,16,26,21.90
2018,07,08,16,27,21.90
2018,07,08,16,28,21.90
2018,07,08,16,29,21.90
2018,07,08,16,30,21.90
2018,07,08,16,31,21.90
2018,07,08,16,32,21.90
2018,07,08,16,33,21.80
2018,07,08,16,34,21.80
2018,07,08,16,35,21.80
2018,07,08,16,36,21.70
2018,07,08,16,37,21.70
2018,07,08,16,38,21.70
2018,07,08,16,39,21.60
2018,07,08,16,40,21.60
2018,07,08,16,41,21.60
2018,07,08,16,42,21.60
2018,07,08,16,43,21.60
2018,07,08,16,44,21.60
2018,07,08,16,45,21.70
2018,07,08,16,46,21.70
2018,07,08,16,47,21.70
2018,07,08,16,48,21.60
2018,07,08,16,49,21.60
2018,07,08,16,50,21.60
2018,07,08,16,51,21.60
2018,07,08,16,52,21.60
2018,07,08,16,53,21.60
2018,07,08,16,54,21.60
2018,07,08,16,55,21.60
2018,07,08,16,56,21.60
2018,07,08,16,57,21.60
2018,07,08,16,58,21.70
2018,07,08,16,59,21.70
2018,07,08,17,00,21.80
2018,07,08,17,01,21.80
2018,07,08,17,02,21.90
2018,07,08,17,03,21.90
2018,07,08,17,04,22.00
2018,07,08,17,05,22.00
2018,07,08,17,06,22.00
2018,07,08,17,07,21.90
2018,07,08,17,08,21.90
2018,07,08,17,09,21.90
2018,07,08,17,10,21.90
2018,07,08,17,11,21.90
2018,07,08,17,12,21.90
2018,07,08,17,13,21.90
2018,07,08,17,14,21.90
2018,07,08,17,15,22.00
2018,07,08,17,16,22.00
2018,07,08,17,17,22.00
2018,07,08,17,18,22.00
2018,07,08,17,19,22.10
2018,07,08,17,20,22.10
2018,07,08,17,21,22.20
2018,07,08,17,22,22.20
2018,07,08,17,23,22.30